Simultaneous Nadir Overpasses (SNOs) Predictions

Prediction of SNOs between METOP-A and NOAA-19 Satellite Orbit:

Table of predicted SNOs for the next 14.0 days since TLE Epoch: 1/6/2012
Index Date Time (METOP-A) METOP-A Lat,Lon NOAA-19 Lat,Lon Distance(km) Time Diff (sec)
1 01/09/2012 18:02:37 -75.86, 89.02 -75.88, 74.40 396.17 24
2 01/09/2012 18:53:45 74.54,-107.56 74.54,-114.31 200.28 54
3 01/09/2012 19:44:41 -73.83, 57.99 -73.83, 54.77 99.51 66
4 01/09/2012 20:35:36 73.08,-136.38 73.10,-136.29 3.46 69
5 01/09/2012 21:26:17 -73.12, 31.02 -73.12, 30.92 3.31 51
6 01/09/2012 22:16:58 73.07,-161.76 73.07,-161.75 0.32 26
7 01/09/2012 23:07:40 -73.05, 5.54 -73.04, 5.56 1.53 10
8 01/09/2012 23:58:20 73.05, 172.87 73.04, 172.79 2.84 17
9 01/10/2012 00:49:02 -73.04, -19.84 -73.01, -19.90 3.26 33
10 01/10/2012 01:39:43 72.99, 147.38 72.96, 147.43 2.90 58
11 01/10/2012 02:30:25 -72.97, -45.32 -72.99, -45.36 2.10 75
12 01/10/2012 03:21:26 71.90, 119.87 71.92, 124.03 143.69 60
13 01/10/2012 04:12:22 -71.16, -74.12 -71.24, -67.46 238.50 49
14 01/19/2012 13:42:17 76.33, -24.28 76.36, -42.22 469.36 8
15 01/19/2012 14:33:27 -75.02, 138.83 -75.04, 129.35 272.10 45
16 01/19/2012 15:24:28 73.99, -56.57 73.98, -60.54 121.75 64
17 01/19/2012 16:15:25 -73.24, 109.02 -73.29, 108.36 21.51 74
18 01/19/2012 17:06:08 73.07, -84.02 73.07, -83.91 3.47 57
19 01/19/2012 17:56:50 -73.07, 83.31 -73.06, 83.34 1.75 38
20 01/19/2012 18:47:30 73.06,-109.39 73.04,-109.38 1.84 14
21 01/19/2012 19:38:13 -73.01, 57.83 -73.03, 57.88 3.19 4
22 01/19/2012 20:28:53 72.99,-134.87 73.01,-134.84 2.80 28
23 01/19/2012 21:19:35 -72.99, 32.46 -73.01, 32.42 2.05 47
24 01/19/2012 22:10:15 72.98,-160.25 72.99,-160.31 2.44 71
25 01/19/2012 23:01:08 -72.42, 5.94 -72.43, 8.11 72.84 68
26 01/19/2012 23:52:08 71.37, 171.30 71.38, 177.34 214.32 52




NCC Satellite Simultaneous Nadir Overpasses (SNOs) Prediction Service
